Greybull, WY

7:12 PM MST on February 09, 2016 (GMT -0700)
South Big Horn County

Weather History for KGEY - September, 2013

Change the Weather History Date:

Sunday, September 22, 2013

  Actual Average Record
Temperature  
Mean Temperature 66 °F 56 °F  
Max Temperature 80 °F 71 °F 90 °F (2007)
Min Temperature 52 °F 40 °F 30 °F (2000)
Degree Days  
Heating Degree Days 0 9  
Month to date heating degree days 31 118  
Since 1 July heating degree days 31 139  
Cooling Degree Days 1 0  
Month to date cooling degree days 96 34  
Year to date cooling degree days 1005 667  
Growing Degree Days 16 (Base 50)    
Moisture  
Dew Point 39 °F    
Average Humidity 40    
Maximum Humidity 59    
Minimum Humidity 21    
Precipitation  
Precipitation T in 0.03 in 0.16 in (2006)
Month to date precipitation 0.52 0.65  
Year to date precipitation 3.14 6.10  
Sea Level Pressure  
Sea Level Pressure 29.48 in    
Wind  
Wind Speed 7 mph (South)    
Max Wind Speed 23 mph    
Max Gust Speed 31 mph    
Visibility 10 miles    
Events Rain    
T = Trace of Precipitation, MM = Missing Value Source: NWS Daily Summary

Daily Weather History Graph

Daily Weather History Graph

Search for Another Location

Airport or City:

Trip Planner

Search our weather history database for the weather conditions in past years. The results will help you decide how hot, cold, wet, or windy it might be!

Date:

Astronomy

Sep. 22, 2013 Rise Set
Actual Time 6:59 AM MDT 7:09 PM MDT
Civil Twilight 6:30 AM MDT 7:38 PM MDT
Nautical Twilight 5:56 AM MDT 8:12 PM MDT
Astronomical Twilight 5:21 AM MDT 8:47 PM MDT
Moon 8:51 PM MDT (9/22) 10:32 AM MDT (9/22)
Length of Visible Light 13h 07m
Length of Day
12h 09m
Waning Gibbous, 88% of the Moon is Illuminated
Sep 22
Waning Gibbous
Sep 26
Last Quarter
Oct 4
New
Oct 11
First Quarter
Oct 18
Full

Hourly Weather History & Observations

Time (MDT) Temp. Dew Point Humidity Pressure Visibility Wind Dir Wind Speed Gust Speed Precip Events Conditions
12:53 AM 60.1 °F 35.1 °F 39% 29.50 in 10.0 mi Calm Calm - N/A   Clear
1:53 AM 57.0 °F 36.0 °F 45% 29.48 in 10.0 mi WSW 3.5 mph - N/A   Clear
2:53 AM 55.9 °F 37.0 °F 49% 29.47 in 10.0 mi Calm Calm - N/A   Clear
3:53 AM 59.0 °F 35.1 °F 41% 29.47 in 10.0 mi Calm Calm - N/A   Clear
4:53 AM 55.0 °F 37.0 °F 51% 29.48 in 10.0 mi NNW 4.6 mph - N/A   Clear
5:53 AM 54.0 °F 37.9 °F 55% 29.50 in 10.0 mi ESE 4.6 mph - N/A   Clear
6:53 AM 54.0 °F 39.0 °F 57% 29.52 in 10.0 mi Calm Calm - N/A   Mostly Cloudy
7:53 AM 54.0 °F 39.9 °F 59% 29.53 in 10.0 mi Calm Calm - N/A   Overcast
8:53 AM 57.0 °F 43.0 °F 59% 29.56 in 10.0 mi NNE 9.2 mph - 0.00 in Rain Light Rain
9:53 AM 62.1 °F 43.0 °F 50% 29.53 in 10.0 mi SE 6.9 mph - 0.00 in   Mostly Cloudy
10:53 AM 69.1 °F 41.0 °F 36% 29.52 in 10.0 mi SW 4.6 mph - N/A   Scattered Clouds
11:53 AM 75.0 °F 39.0 °F 27% 29.49 in 10.0 mi WSW 8.1 mph - N/A   Mostly Cloudy
12:53 PM 77.0 °F 37.9 °F 24% 29.48 in 10.0 mi Variable 3.5 mph - N/A   Clear
1:53 PM 78.1 °F 39.0 °F 25% 29.46 in 10.0 mi Variable 3.5 mph - N/A   Clear
2:53 PM 79.0 °F 36.0 °F 21% 29.44 in 10.0 mi Calm Calm - N/A   Clear
3:53 PM 79.0 °F 36.0 °F 21% 29.41 in 10.0 mi SE 9.2 mph 19.6 mph N/A   Clear
4:53 PM 75.9 °F 39.0 °F 26% 29.43 in 10.0 mi South 23.0 mph 31.1 mph N/A   Clear
5:53 PM 73.9 °F 39.0 °F 28% 29.44 in 10.0 mi SSE 16.1 mph 25.3 mph N/A   Clear
6:53 PM 72.0 °F 39.9 °F 31% 29.45 in 10.0 mi SSE 12.7 mph - N/A   Clear
7:53 PM 68.0 °F 39.9 °F 36% 29.46 in 10.0 mi SE 6.9 mph - N/A   Clear
8:53 PM 66.0 °F 42.1 °F 42% 29.48 in 10.0 mi NW 8.1 mph - N/A   Clear
9:53 PM 64.9 °F 42.1 °F 43% 29.48 in 10.0 mi Calm Calm - N/A   Clear
10:53 PM 60.1 °F 44.1 °F 55% 29.49 in 10.0 mi Calm Calm - N/A   Partly Cloudy
11:53 PM 62.1 °F 43.0 °F 50% 29.48 in 10.0 mi WNW 13.8 mph - 0.00 in   Overcast